CW4525 Weather Reports


Display with metric or nautical units.
time (UTC)temp
F
wind
direction
speed
MPH
gust
MPH
rain 1hr
in
rain 24hr
in
rain mn
in
humidity
%
barometer
mb
20240525113045 52 243 4.0 8.0 0.00 0.00 0.00 75 1008.1
20240525111556 51 270 3.0 6.0 0.00 0.00 0.00 79 1007.9
20240525110041 50 211 0.0 5.0 0.00 0.00 0.00 81 1007.7
20240525104540 50 198 1.0 6.0 0.00 0.00 0.00 82 1007.4
20240525103037 50 209 1.0 4.0 0.00 0.00 0.00 81 1007.0
20240525101536 50 355 0.0 4.0 0.00 0.00 0.00 80 1007.0
20240525100041 50 346 0.0 5.0 0.00 0.00 0.00 80 1006.9
20240525094534 50 309 3.0 7.0 0.00 0.00 0.00 79 1007.3
20240525093029 50 278 0.0 5.0 0.00 0.00 0.00 78 1007.5
20240525091536 51 298 1.0 4.0 0.00 0.00 0.00 77 1007.5
20240525090026 51 301 0.0 4.0 0.00 0.00 0.00 76 1007.5
20240525084526 51 278 1.0 5.0 0.00 0.00 0.00 76 1007.5
20240525083023 52 273 1.0 3.0 0.00 0.00 0.00 76 1007.5
20240525081520 52 287 0.0 5.0 0.00 0.00 0.00 75 1007.3
20240525080019 52 267 2.0 6.0 0.00 0.00 0.00 74 1007.1
20240525074533 53 306 4.0 6.0 0.00 0.00 0.00 73 1007.2
20240525073014 53 305 2.0 5.0 0.00 0.00 0.00 72 1007.3
20240525071518 54 302 2.0 6.0 0.00 0.00 0.00 70 1007.4
20240525070014 54 302 2.0 6.0 0.00 0.00 0.00 69 1007.4
20240525064510 54 243 2.0 7.0 0.00 0.00 0.00 70 1007.5
20240525063010 54 309 4.0 9.0 0.00 0.00 0.00 71 1007.5
20240525061506 54 334 0.0 2.0 0.00 0.00 0.00 74 1007.5
20240525060004 55 286 0.0 4.0 0.00 0.00 0.00 73 1007.5
20240525054503 55 306 0.0 1.0 0.00 0.00 0.00 72 1007.0
20240525053103 56 317 1.0 4.0 0.00 0.00 0.00 70 1007.4
20240525051556 57 315 0.0 0.0 0.00 0.00 0.00 68 1007.2
20240525050053 57 338 0.0 0.0 0.00 0.00 0.00 67 1006.9
20240525044551 58 360 1.0 7.0 0.00 0.00 0.00 66 1007.1
20240525043048 58 314 4.0 10.0 0.00 0.00 0.00 64 1006.9
20240525041549 59 342 1.0 9.0 0.00 0.00 0.00 63 1006.9
20240525040050 60 348 0.0 4.0 0.00 0.00 0.00 61 1006.6
20240525034548 60 346 2.0 6.0 0.00 0.00 0.00 61 1006.4
20240525033043 61 307 1.0 5.0 0.00 0.00 0.00 60 1006.4
20240525031547 62 301 1.0 6.0 0.00 0.00 0.00 58 1006.2
20240525030042 62 355 2.0 7.0 0.00 0.00 0.00 58 1005.9
20240525024541 63 355 3.0 9.0 0.00 0.00 0.00 56 1006.0
20240525023048 64 308 3.0 11.0 0.00 0.00 0.00 55 1006.0
20240525021540 64 329 4.0 10.0 0.00 0.00 0.00 54 1006.0
20240525020040 65 5 4.0 12.0 0.00 0.00 0.00 53 1005.7
20240525014539 66 351 4.0 10.0 0.00 0.00 0.00 51 1005.2
20240525013053 67 323 4.0 13.0 0.00 0.00 0.00 50 1004.8
20240525011538 68 310 7.0 13.0 0.00 0.00 0.00 48 1004.7
20240525010044 70 5 5.0 15.0 0.00 0.00 0.00 46 1004.1
20240525004542 71 20 8.0 15.0 0.00 0.00 0.00 40 1003.3
20240525003037 72 265 7.0 19.0 0.00 0.00 0.00 36 1003.1
20240525001552 73 289 7.0 19.0 0.00 0.00 0.00 36 1003.0
20240525000039 73 271 7.0 15.0 0.00 0.00 0.00 36 1002.9
20240524234537 74 225 9.0 14.0 0.00 0.00 0.00 38 1002.6
20240524233034 75 259 5.0 18.0 0.00 0.00 0.00 36 1002.5
20240524231535 75 251 9.0 25.0 0.00 0.00 0.00 37 1002.4
20240524230046 76 240 6.0 15.0 0.00 0.00 0.00 38 1002.3
20240524224533 76 257 9.0 20.0 0.00 0.00 0.00 36 1002.2
20240524223033 77 309 11.0 23.0 0.00 0.00 0.00 36 1002.2
20240524221532 77 273 8.0 23.0 0.00 0.00 0.00 38 1002.0
20240524220039 77 311 11.0 20.0 0.00 0.00 0.00 35 1002.0
20240524214533 78 259 8.0 24.0 0.00 0.00 0.00 36 1002.0
20240524213030 78 305 12.0 26.0 0.00 0.00 0.00 34 1002.0
20240524211529 78 225 9.0 21.0 0.00 0.00 0.00 35 1002.0
20240524210029 79 250 11.0 26.0 0.00 0.00 0.00 34 1002.0
20240524204528 79 238 14.0 29.0 0.00 0.00 0.00 33 1001.6
20240524203027 80 293 13.0 25.0 0.00 0.00 0.00 34 1001.5
20240524201527 80 256 11.0 23.0 0.00 0.00 0.00 33 1001.7
20240524200026 79 300 9.0 23.0 0.00 0.00 0.00 34 1001.6
20240524194530 79 280 12.0 24.0 0.00 0.00 0.00 33 1001.6
20240524193024 79 198 8.0 25.0 0.00 0.00 0.00 33 1001.9
20240524191534 80 270 13.0 23.0 0.00 0.00 0.00 32 1002.0
20240524190023 80 254 10.0 23.0 0.00 0.00 0.00 32 1002.0
20240524184521 79 219 9.0 20.0 0.00 0.00 0.00 34 1002.1
20240524183026 78 244 12.0 27.0 0.00 0.00 0.00 33 1002.3
20240524181539 79 265 11.0 27.0 0.00 0.00 0.00 32 1002.3
20240524180028 79 215 9.0 26.0 0.00 0.00 0.00 34 1002.5
20240524174517 79 259 12.0 26.0 0.00 0.00 0.00 31 1002.6
20240524173015 79 248 11.0 27.0 0.00 0.00 0.00 32 1002.8
20240524171513 78 257 11.0 26.0 0.00 0.00 0.00 33 1002.9
20240524170033 78 220 12.0 24.0 0.00 0.00 0.00 34 1002.8
20240524164515 77 272 10.0 25.0 0.00 0.00 0.00 38 1003.0
20240524163005 77 244 13.0 28.0 0.00 0.00 0.00 38 1003.1
20240524161502 76 195 8.0 27.0 0.00 0.00 0.00 39 1003.5
20240524160100 75 286 15.0 28.0 0.00 0.00 0.00 39 1003.6
20240524154612 75 252 10.0 19.0 0.00 0.00 0.00 41 1003.7
20240524153059 75 218 11.0 22.0 0.00 0.00 0.00 39 1004.0
20240524151554 75 349 12.0 22.0 0.00 0.00 0.00 38 1004.1
20240524150103 75 279 8.0 19.0 0.00 0.00 0.00 40 1004.3
20240524144548 74 284 9.0 19.0 0.00 0.00 0.00 42 1004.5
20240524143045 74 286 7.0 18.0 0.00 0.00 0.00 42 1004.7
20240524141543 73 291 5.0 15.0 0.00 0.00 0.00 45 1004.9
20240524140050 72 215 5.0 15.0 0.00 0.00 0.00 47 1005.1
20240524134542 71 239 7.0 14.0 0.00 0.00 0.00 47 1005.2
20240524133031 70 227 7.0 14.0 0.00 0.00 0.00 52 1005.5
20240524131526 68 249 6.0 14.0 0.00 0.00 0.00 56 1005.6
20240524130022 67 267 7.0 12.0 0.00 0.00 0.00 58 1005.7
20240524124535 66 202 6.0 14.0 0.00 0.00 0.00 59 1005.7
20240524123017 65 271 6.0 13.0 0.00 0.00 0.00 61 1005.9
20240524121535 64 297 5.0 10.0 0.00 0.00 0.00 63 1006.0
20240524120016 62 236 4.0 10.0 0.00 0.00 0.00 67 1006.1
20240524114525 61 262 3.0 9.0 0.00 0.00 0.00 69 1005.9